TimeEDT,TemperatureF,Dew PointF,Humidity,Sea Level PressureIn,VisibilityMPH,Wind Direction,Wind SpeedMPH,Gust SpeedMPH,PrecipitationIn,Events,Conditions,WindDirDegrees,DateUTC
12:45 AM,73.4,71.6,94,29.80,10.0,ESE,9.2,-,0.00,,Mostly Cloudy,110,2013-05-03 04:45:00
12:53 AM,73.9,72.0,93,29.80,10.0,East,10.4,-,0.00,,Mostly Cloudy,100,2013-05-03 04:53:00
1:15 AM,75.2,73.4,94,29.78,10.0,SE,13.8,-,N/A,,Overcast,140,2013-05-03 05:15:00
1:46 AM,75.2,71.6,89,29.76,10.0,South,6.9,-,N/A,,Mostly Cloudy,180,2013-05-03 05:46:00
1:53 AM,73.9,72.0,93,29.76,10.0,South,6.9,-,N/A,,Scattered Clouds,170,2013-05-03 05:53:00
2:53 AM,71.1,71.1,100,29.75,10.0,WSW,8.1,-,N/A,,Clear,250,2013-05-03 06:53:00
3:48 AM,69.8,69.8,100,29.75,10.0,SSW,6.9,-,N/A,,Scattered Clouds,210,2013-05-03 07:48:00
4:07 AM,69.8,69.8,100,29.76,10.0,SW,6.9,-,N/A,,Overcast,220,2013-05-03 08:07:00
4:53 AM,69.1,69.1,100,29.76,10.0,WSW,10.4,-,N/A,,Mostly Cloudy,240,2013-05-03 08:53:00
5:53 AM,68.0,-9999,N/A,29.78,6.0,WSW,8.1,-,N/A,,Haze,250,2013-05-03 09:53:00
6:53 AM,68.0,-9999,N/A,29.78,9.0,SW,8.1,-,N/A,,Overcast,230,2013-05-03 10:53:00
7:37 AM,69.8,69.8,100,29.78,10.0,SW,8.1,-,N/A,,Scattered Clouds,230,2013-05-03 11:37:00
7:53 AM,70.0,70.0,100,29.78,10.0,WSW,8.1,-,N/A,,Clear,240,2013-05-03 11:53:00
8:53 AM,72.0,70.0,93,29.79,10.0,WSW,8.1,-,N/A,,Scattered Clouds,240,2013-05-03 12:53:00
9:53 AM,75.0,69.1,82,29.80,10.0,WSW,10.4,-,N/A,,Partly Cloudy,240,2013-05-03 13:53:00
10:53 AM,78.1,69.1,74,29.79,10.0,WSW,10.4,-,N/A,,Scattered Clouds,250,2013-05-03 14:53:00
11:53 AM,80.1,66.0,62,29.80,10.0,WSW,10.4,16.1,N/A,,Partly Cloudy,240,2013-05-03 15:53:00
12:53 PM,82.0,64.9,56,29.78,10.0,West,10.4,-,N/A,,Scattered Clouds,270,2013-05-03 16:53:00
1:53 PM,84.0,63.0,49,29.76,10.0,Variable,4.6,16.1,N/A,,Partly Cloudy,0,2013-05-03 17:53:00
2:53 PM,82.0,68.0,62,29.74,10.0,SE,9.2,-,N/A,,Partly Cloudy,130,2013-05-03 18:53:00
3:53 PM,82.0,69.1,65,29.71,10.0,SSE,10.4,18.4,N/A,,Clear,150,2013-05-03 19:53:00
4:53 PM,78.1,71.1,79,29.71,5.0,SSE,13.8,-,0.02,Rain,Rain,160,2013-05-03 20:53:00
5:20 PM,77.0,73.4,89,29.71,3.0,South,9.2,-,0.16,Rain-Thunderstorm,Thunderstorms and Rain,170,2013-05-03 21:20:00
5:42 PM,73.4,71.6,94,29.72,1.2,WSW,11.5,-,0.40,Rain-Thunderstorm,Heavy Thunderstorms and Rain,250,2013-05-03 21:42:00
5:53 PM,71.1,71.1,100,29.73,1.2,WSW,15.0,-,0.57,Rain-Thunderstorm,Heavy Thunderstorms and Rain,240,2013-05-03 21:53:00
6:11 PM,71.6,71.6,100,29.73,2.5,SW,9.2,-,0.16,Rain-Thunderstorm,Heavy Thunderstorms and Rain,230,2013-05-03 22:11:00
6:29 PM,71.6,69.8,94,29.71,7.0,South,4.6,-,0.21,Rain-Thunderstorm,Light Thunderstorms and Rain,190,2013-05-03 22:29:00
6:53 PM,73.9,70.0,87,29.71,10.0,SW,4.6,-,0.21,Thunderstorm,Thunderstorm,220,2013-05-03 22:53:00
7:00 PM,73.4,69.8,88,29.70,10.0,SSW,4.6,-,N/A,,Mostly Cloudy,210,2013-05-03 23:00:00
7:53 PM,75.0,72.0,90,29.72,10.0,Calm,Calm,-,N/A,,Scattered Clouds,0,2013-05-03 23:53:00
8:53 PM,73.9,73.0,97,29.76,10.0,NW,4.6,-,0.00,,Overcast,320,2013-05-04 00:53:00
9:19 PM,71.6,71.6,100,29.76,2.5,West,15.0,-,0.13,Rain,Heavy Rain,270,2013-05-04 01:19:00
9:28 PM,71.6,71.6,100,29.76,2.0,WNW,6.9,-,0.21,Rain,Heavy Rain,300,2013-05-04 01:28:00
9:37 PM,71.6,71.6,100,29.76,5.0,WNW,9.2,-,0.22,Rain,Rain,300,2013-05-04 01:37:00
9:53 PM,71.1,71.1,100,29.76,10.0,WNW,3.5,-,0.23,Rain,Light Rain,290,2013-05-04 01:53:00
10:53 PM,71.1,71.1,100,29.75,10.0,Calm,Calm,-,0.00,,Clear,0,2013-05-04 02:53:00
11:53 PM,71.1,71.1,100,29.75,10.0,Calm,Calm,-,N/A,,Clear,0,2013-05-04 03:53:00